User: anonymous   Login
Location: Freemans Gardens
(41.6414°N, 83.6077°W)
Time: 03:31:13
(UTC+00:00)
Language:

FengYun 1-2 T - Orbit

View from above orbital plane
View from above orbital plane
View from above satellite
View from above satellite

Ground track
Ground track

The orbit data is extracted from the following two-line orbital elements,

1 20855U 90081T   21015.53636615 -.00000017  00000-0  14531-4 0  9999
2 20855  98.7054  29.6937 0023455 329.1588 140.0540 14.08687236560691
Epoch (UTC): 15 January 2021 12:52:22
Eccentricity: 0.0023455
inclination: 98.7054°
perigee height: 847 km
apogee height: 881 km
right ascension of ascending node: 29.6937°
argument of perigee: 329.1588°
revolutions per day: 14.08687236
mean anomaly at epoch: 140.0540°
orbit number at epoch: 56069

The dashed part of the orbit path shows where the satellite is in the earth's shadow,  

DLR